sat.trackr.live / text

‹ back to catalog

STARLINK-34054

NORAD 64141 · 2025-111U

PAYLOAD ACTIVE UNKNOWN

§ Identity

Operator
Country
US
Launch date
2025-05-24
Launch site
AFETR
Launch vehicle
Mass (kg)
RCS (m²)

Purposes: comms

External: N2YO · Heavens-Above · Gunter

§ Orbital elements

Epoch: 2026-05-24T23:48:04.106016Z

Period
94.27 min
Inclination
43.0024°
Eccentricity
0.0001261
Mean motion
15.27582130 rev/d
Perigee alt
482.2 km
Apogee alt
483.9 km
Semi-major
6,861.2 km
B*
5.4635e-4
RAAN
6.8807°
Arg perigee
252.4961°
Mean anomaly
107.5753°
Rev number
5,713

§ Raw data

STARLINK-340541 64141U 25111U   26144.99171419  .00014803  00000+0  54635-3 0  99952 64141  43.0024   6.8807 0001261 252.4961 107.5753 15.27582130 57137

JSON: /api/v1/satellites/64141 · /tle

For live sub-satellite position, see the globe view (requires WebGL).

§ Visibility from observer

Set your observer location to see the next 7 days of passes ≥ 10°. The values pass through the URL so the page stays shareable.

No JS? Fill the form by hand. The geolocation button needs JavaScript.